Powrót do katalogu

FENGYUN 1C DEB

AktywnySSO
NORAD 35116·DEBRIS·🇨🇳 China

Wystrzelony May 10, 1999 z Taiyuan Satellite Launch Center

Loading…

Następne Przeloty (najbliższe 24 godziny)

TLE

ŚwieżeSource: Space-Track

Epoka: Sep 14, 2026, 08:38 UTC

1 35116U 99025DKU 26257.36005651  .00001141  00000-0  48681-3 0  9996
2 35116  98.6372 304.6179 0056615 325.8509  33.9034 14.26156537638872

Śledź FENGYUN 1C DEB w czasie rzeczywistym z AllMySat

Download on the App Store